This is the latest recevied weather packets stored in our database for station/object NK7I. If no packets are shown the sender has not sent any weather packets the latest 10 day(s).
| Time | Temp. | Humidity | Pressure | Rain* | Wind** | Luminosity | Snow |
|---|---|---|---|---|---|---|---|
| 1777874482 | 12.22° C | 65% | 1007.2 hPa | 0 mm | - | 0 W/m² | - |
| 1777874182 | 12.78° C | 67% | 1007.2 hPa | 0 mm | - | 0 W/m² | - |
| 1777873882 | 12.78° C | 67% | 1007.3 hPa | 0 mm | - | 0 W/m² | - |
| 1777873582 | 12.78° C | 67% | 1007.3 hPa | 0 mm | - | 0 W/m² | - |
| 1777873282 | 12.78° C | 64% | 1007.3 hPa | 0 mm | - | 0 W/m² | - |
| 1777873150 | 12.78° C | 65% | 1007.3 hPa | 0 mm | - | 0 W/m² | - |
| 1777872768 | 13.33° C | 65% | 1007.3 hPa | 0 mm | - | 0 W/m² | - |
| 1777872382 | 13.33° C | 65% | 1007.4 hPa | 0 mm | - | 0 W/m² | - |
| 1777872082 | 13.33° C | 64% | 1007.3 hPa | 0 mm | - | 0 W/m² | - |
| 1777871782 | 13.89° C | 64% | 1007.4 hPa | 0 mm | - | 0 W/m² | - |
| 1777871482 | 13.89° C | 64% | 1007.4 hPa | 0 mm | - | 0 W/m² | - |
| 1777871182 | 13.89° C | 62% | 1007.4 hPa | 0 mm | - | 0 W/m² | - |
| 1777870882 | 14.44° C | 63% | 1007.4 hPa | 0 mm | - | 0 W/m² | - |
| 1777870582 | 14.44° C | 62% | 1007.3 hPa | 0 mm | - | 0 W/m² | - |
| 1777870282 | 14.44° C | 62% | 1007.2 hPa | 0 mm | - | 0 W/m² | - |
| 1777869982 | 15° C | 61% | 1007.1 hPa | 0 mm | - | 0 W/m² | - |
| 1777869682 | 15° C | 60% | 1007 hPa | 0 mm | - | 0 W/m² | - |
| 1777869382 | 15° C | 61% | 1007 hPa | 0 mm | - | 0 W/m² | - |
| 1777869082 | 15.56° C | 59% | 1007 hPa | 0 mm | - | 0 W/m² | - |
| 1777868782 | 15.56° C | 57% | 1007.1 hPa | 0 mm | - | 0 W/m² | - |
| 1777868482 | 16.11° C | 57% | 1007 hPa | 0 mm | - | 0 W/m² | - |
| 1777868182 | 16.11° C | 55% | 1007 hPa | 0 mm | - | 0 W/m² | - |
| 1777867882 | 16.11° C | 55% | 1007 hPa | 0 mm | - | 0 W/m² | - |
| 1777867582 | 16.67° C | 54% | 1007 hPa | 0 mm | - | 0 W/m² | - |
| 1777867282 | 17.22° C | 53% | 1006.9 hPa | 0 mm | - | 0 W/m² | - |
* Rain latest hour (hover to see other rain measurements)
** Current wind speed in m/s (hover to see current wind gust speed)